STARLINK-33632, 63577

Orbit data source: Space-Track

STARLINK-33632, 63577 is a payload satellite owned by SpaceX/Seattle (US) in LEO that was launched on Mon, 14 Apr 2025 UTC via an FALCON 9 launch vehicle from the Air Force Eastern Test Range (AFETR). Payload-class satellites include a variety of spacecraft equipped with specific instruments for various scientific and technological missions. These include communications satellites like Starlink; space stations such as the ISS; scientific satellites like the Hubble; Earth observation satellites from companies like Planet Labs, Umbra, and HawkEye 360; GPS; miniature CubeSats for education and research; and military/defense satellites.

Loading next visibility...
Identifier
63577, 2025-076J
Orbit
LEO
Last TLE update
14 hours ago
Origin
Manufacturer
SpaceX/Seattle
Mission
Operational Commercial Communications
Bus & Motor
STARLINK V2MO, Unknown motor
Mass
575 kg wet, ~530 kg dry
Launch date (UTC)
2025-04-14 (3 months ago)
Launch vehicle
FALCON 9
Launch site
Air Force Eastern Test Range (AFETR)
Object type
Payload
Rocket body
Debris
Shape & HBR
Box + 1 Pan, 14.5 m
Radar Cross Section
41.120 m², Large (>1 m²)

Expand to show TLE details & history

TLE from 14 hours ago
0 STARLINK-33632
1 63577U 25076J   25199.38737803  .00011318  00000-0  42003-3 0  9999
2 63577  42.9977 205.1937 0001113 244.7750 115.2986 15.27591870 15991
Epoch: 2025-07-18T09:17Z
TLE epoch observation values (Epoch: 2025-07-18T09:17:49.461Z)
Latitude
-0.00005°
Longitude
129.29799°
Altitude
483.115 km
Speed
7.625 km/s
True Right ascension
13h 40m 46s
True Declination
0° 00' 00"
Sunlit
Object was in daylight at epoch
Visualization orbit readout
Latitude
35.6713°
Longitude
175.87079°
Altitude
485.309 km
Speed
7.627 km/s
Apparent Right ascension
20h 14m 07s
Apparent Declination
0° 54' 23"
Sunlit
Object is in daylight
Visualization observer readout
Local Sidereal Time
12:28:08
Azimuth
72.97° E
Elevation
-20.627°
Doppler factor
1
Orbital elements
Apogee altitude
485.723 km
Perigee altitude
484.195 km
Semi-major axis
6,863.096 km
Eccentricity
0.00011
Inclination
42.9977°
RAAN
205.1937°
Arg. of periapsis
244.775°
True anomaly
115.31013°
Mean anomaly
115.2986°
Eccentric anomaly
115.30437°
Mean motion
3.81736 °/min
Orbital period
94.31 mins
BSTAR
0.00042003
Loading maneuver chart data...
Loading SW <> Apogee altitude chart data...
Loading historical data...
Loading historical data...
Loading historical data...
Loading historical data...
Loading historical data...
Loading historical data...
Loading historical data...
|